This demonstration page uses our WeatherBlox Daily Observations layout. Learn more.

Left ArrowRight Arrow

53.62937, 11.41316

Hourly Observations for July 21, 2022

Temp ( °F °C ) Dew Point ( °F °C ) Humidity (%) Winds ( mph kmh ) Pressure ( in mb ) Visibility ( mi km ) Precip ( " mm )
12:20 am 00:20 Mostly Clear 70 21 64 18 83 83 NW 5 7 29.97 1015 30 48 N/A
12:50 am 00:50 Mostly Clear 70 21 64 18 83 83 NW 5 7 29.97 1015 30 48 N/A
1:20 am 01:20 Mostly Clear 68 20 64 18 88 88 NW 3 6 29.97 1015 30 48 N/A
1:50 am 01:50 Mostly Clear 68 20 63 17 83 83 WNW 3 6 29.97 1015 30 48 N/A
2:20 am 02:20 Mostly Clear 66 19 63 17 88 88 WNW 3 6 29.94 1014 30 48 N/A
2:50 am 02:50 Mostly Clear 66 19 63 17 88 88 WNW 2 4 29.94 1014 30 48 N/A
3:20 am 03:20 Mostly Clear 64 18 63 17 94 94 W 3 6 29.94 1014 30 48 N/A
3:50 am 03:50 Mostly Clear 64 18 63 17 94 94 WNW 3 6 29.94 1014 30 48 N/A
4:20 am 04:20 Mostly Clear 64 18 61 16 88 88 WNW 3 6 29.94 1014 30 48 N/A
4:50 am 04:50 Mostly Clear 64 18 61 16 88 88 W 8 13 29.97 1015 30 48 N/A
5:20 am 05:20 Mostly Sunny 64 18 59 15 83 83 W 9 15 29.94 1014 30 48 N/A
5:50 am 05:50 Mostly Sunny 64 18 59 15 83 83 W 7 11 29.94 1014 30 48 N/A
6:20 am 06:20 Mostly Sunny 64 18 59 15 83 83 W 8 13 29.94 1014 7 11 N/A
6:50 am 06:50 Mostly Sunny 64 18 61 16 88 88 W 10 17 29.97 1015 7 11 N/A
7:20 am 07:20 Mostly Sunny 66 19 61 16 83 83 W 9 15 29.97 1015 30 48 N/A
7:50 am 07:50 Mostly Sunny 66 19 63 17 88 88 W 9 15 29.97 1015 30 48 N/A
8:20 am 08:20 Mostly Sunny 68 20 63 17 83 83 NW 9 15 29.94 1014 7 11 N/A
8:50 am 08:50 Mostly Sunny 72 22 63 17 73 73 WNW 8 13 29.97 1015 7 11 N/A
9:20 am 09:20 Mostly Sunny 72 22 61 16 69 69 WNW 8 13 29.97 1015 7 11 N/A
9:50 am 09:50 Mostly Sunny 72 22 59 15 65 65 NNW 8 13 29.94 1014 7 11 N/A
10:20 am 10:20 Mostly Sunny 73 23 59 15 61 61 W 6 9 29.97 1015 7 11 N/A
10:50 am 10:50 Mostly Sunny 73 23 61 16 65 65 VRB 7 11 30.00 1016 7 11 N/A
11:20 am 11:20 Mostly Sunny 75 24 61 16 61 61 W 10 17 30.00 1016 7 11 N/A
11:50 am 11:50 Mostly Sunny 77 25 61 16 57 57 W 8 13 30.00 1016 7 11 N/A
12:20 pm 12:20 Mostly Sunny 79 26 59 15 51 51 W 9 15 30.00 1016 7 11 N/A
12:50 pm 12:50 Mostly Sunny 77 25 59 15 54 54 WNW 12 19 30.00 1016 7 11 N/A
1:20 pm 13:20 Mostly Sunny 79 26 63 17 58 58 WNW 10 17 30.00 1016 7 11 N/A
1:50 pm 13:50 Partly Cloudy 77 25 63 17 61 61 VRB 8 13 30.00 1016 30 48 N/A
2:20 pm 14:20 Mostly Sunny 75 24 63 17 65 65 W 8 13 30.00 1016 30 48 N/A
2:50 pm 14:50 Mostly Sunny 79 26 63 17 58 58 W 9 15 30.00 1016 30 48 N/A
3:20 pm 15:20 Mostly Sunny 79 26 63 17 58 58 WSW 7 11 30.00 1016 30 48 N/A
3:50 pm 15:50 Mostly Sunny 79 26 63 17 58 58 VRB 6 9 30.00 1016 30 48 N/A
4:20 pm 16:20 Mostly Sunny 81 27 61 16 51 51 VRB 6 9 29.97 1015 30 48 N/A
4:50 pm 16:50 Partly Cloudy 79 26 61 16 54 54 VRB 5 7 29.97 1015 30 48 N/A
5:20 pm 17:20 Mostly Cloudy 77 25 61 16 57 57 VRB 6 9 29.97 1015 30 48 N/A
5:50 pm 17:50 Mostly Cloudy with Light Rain and Scattered Storms 70 21 64 18 83 83 VRB 2 4 30.00 1016 30 48 N/A
6:20 pm 18:20 Partly Cloudy with Showers 70 21 66 19 88 88 S 6 9 30.00 1016 30 48 N/A
6:50 pm 18:50 Mostly Cloudy with Light Rain 64 18 61 16 88 88 WSW 6 9 30.00 1016 30 48 N/A
7:20 pm 19:20 Partly Cloudy with Light Rain 64 18 63 17 94 94 VRB 2 4 30.00 1016 30 48 N/A
7:50 pm 19:50 Mostly Sunny 64 18 63 17 94 94 VRB 2 4 30.00 1016 7 11 N/A
8:20 pm 20:20 Mostly Sunny 64 18 63 17 94 94 VRB 1 2 30.00 1016 7 11 N/A
8:50 pm 20:50 Mostly Sunny 64 18 63 17 94 94 VRB 1 2 30.00 1016 7 11 N/A
9:20 pm 21:20 Mostly Sunny 64 18 63 17 94 94 S 3 6 30.00 1016 7 11 N/A
9:50 pm 21:50 Mostly Clear 64 18 63 17 94 94 S 3 6 30.00 1016 7 11 N/A
10:20 pm 22:20 Mostly Clear 64 18 63 17 94 94 VRB 5 7 30.00 1016 30 48 N/A
10:50 pm 22:50 Mostly Clear 64 18 63 17 94 94 VRB 2 4 30.00 1016 30 48 N/A
11:20 pm 23:20 Mostly Clear 64 18 64 18 100 100 S 5 7 30.00 1016 30 48 N/A
11:50 pm 23:50 Mostly Cloudy 64 18 64 18 100 100 VRB 2 4 29.97 1015 30 48 N/A

Powered by AerisWeather